Starlink 31170

operational
NORAD ID: 58801 Int'l Des: 2024-012 Owner: SPXS Country: US Constellation: starlink
LEOCIRCULAR

关于 Starlink 31170

正在加载描述...

实时位置

正在加载3D地球...

即将过境

高度历史

Altitude vs Time

uPlot chart will show altitude changes over time

两行轨道根数

1 58801U 24012Q 25258.18153796 .00001773 00000-0 73933-4 0 9990
2 58801 43.0044 76.4672 0001295 268.9021 91.1683 15.27578837 94392
Epoch: Sep 15, 2025 • Age: 24 hours

当前状态

高度 486.5 km
速度 7.63 km/s
星下点 40.87°N, 79.61°E
发射日期 Jan 15, 2024
运行时间 1.6 years
类型 internet

技术详情

分类 Payload
质量 730.00 kg
干质量 700.00 kg
总质量 730.00 kg
长度 0.30 m
直径 4.10 m
跨度 29.00 m
形状 Box + pan
制造商 SPXS
平台类型 Starlink V2M
阶段状态 In Orbit
所有者/国家 SPXS/US

大型星座

Loading constellations...